This is the latest recevied weather packets stored in our database for station/object DG1ABU-11. If no packets are shown the sender has not sent any weather packets the latest 10 day(s).
| Time | Temp. | Humidity | Pressure | Rain* | Wind** | Luminosity | Snow |
|---|---|---|---|---|---|---|---|
| 1777987956 | 20° C | 48% | 1010 hPa | - | - | - | - |
| 1777987056 | 20.56° C | 47% | 1010.1 hPa | - | - | - | - |
| 1777986156 | 20.56° C | 47% | 1010.1 hPa | - | - | - | - |
| 1777985256 | 21.11° C | 45% | 1010.2 hPa | - | - | - | - |
| 1777984356 | 21.11° C | 45% | 1010.1 hPa | - | - | - | - |
| 1777983456 | 21.67° C | 45% | 1010.1 hPa | - | - | - | - |
| 1777982556 | 21.67° C | 47% | 1010.1 hPa | - | - | - | - |
| 1777981656 | 21.67° C | 48% | 1010.1 hPa | - | - | - | - |
| 1777980756 | 21.67° C | 49% | 1010.3 hPa | - | - | - | - |
| 1777979856 | 21.67° C | 49% | 1010.3 hPa | - | - | - | - |
| 1777978956 | 21.11° C | 47% | 1010.4 hPa | - | - | - | - |
| 1777978056 | 21.11° C | 49% | 1010.5 hPa | - | - | - | - |
| 1777977156 | 20.56° C | 49% | 1010.6 hPa | - | - | - | - |
| 1777976256 | 20.56° C | 49% | 1010.8 hPa | - | - | - | - |
| 1777975356 | 20.56° C | 49% | 1010.6 hPa | - | - | - | - |
| 1777974456 | 20° C | 52% | 1010.6 hPa | - | - | - | - |
| 1777973555 | 18.89° C | 54% | 1010.7 hPa | - | - | - | - |
| 1777972655 | 18.33° C | 55% | 1010.8 hPa | - | - | - | - |
| 1777971755 | 17.78° C | 56% | 1010.9 hPa | - | - | - | - |
| 1777970855 | 17.78° C | 56% | 1010.9 hPa | - | - | - | - |
| 1777969955 | 17.22° C | 57% | 1010.9 hPa | - | - | - | - |
| 1777969055 | 17.22° C | 59% | 1010.9 hPa | - | - | - | - |
| 1777968155 | 17.22° C | 63% | 1011 hPa | - | - | - | - |
| 1777967255 | 16.67° C | 62% | 1010.9 hPa | - | - | - | - |
| 1777966355 | 16.67° C | 62% | 1010.7 hPa | - | - | - | - |
* Rain since midnight (hover to see other rain measurements)
** Current wind speed in m/s (hover to see current wind gust speed)